timestamp,surface_pressure_avg,surface_temp_avg,battery_voltage,lat,long
2017-09-12 00:00:00+00:00,241.7264,14.2,12.49,47.84626,-54.09684
2017-09-12 00:10:00+00:00,246.0914,14.2,12.49,47.84626,-54.09684
2017-09-12 00:20:00+00:00,252.5265,14.2,12.57,47.84626,-54.09684
2017-09-12 00:30:00+00:00,261.1847,14.2,12.57,47.84626,-54.09684
2017-09-12 00:40:00+00:00,263.3864,14.2,12.57,47.84626,-54.09684
2017-09-12 00:50:00+00:00,264.9748,14.24,12.57,47.84626,-54.09684
2017-09-12 01:00:00+00:00,271.6531,14.3,12.49,47.84626,-54.09684
2017-09-12 01:10:00+00:00,284.3614,14.29,12.49,47.84626,-54.09684
2017-09-12 01:20:00+00:00,285.783,14.2,12.57,47.84626,-54.09684
2017-09-12 01:30:00+00:00,289.6348,14.24,12.57,47.84626,-54.09684
2017-09-12 01:40:00+00:00,304.6848,14.28,12.57,47.84626,-54.09684
2017-09-12 01:50:00+00:00,318.2047,14.27,12.57,47.84626,-54.09684
2017-09-12 02:00:00+00:00,311.5447,14.2,12.49,47.84626,-54.09684
2017-09-12 02:10:00+00:00,310.413,14.27,12.49,47.84626,-54.09684
2017-09-12 02:20:00+00:00,323.9763,14.25,12.57,47.84626,-54.09684
2017-09-12 02:30:00+00:00,337.6646,14.2,12.57,47.84626,-54.09684
2017-09-12 02:40:00+00:00,327.928,14.16,12.57,47.84626,-54.09684
2017-09-12 02:50:00+00:00,322.7146,14.2,12.57,47.84626,-54.09684
2017-09-12 03:00:00+00:00,335.633,14.2,12.49,47.84626,-54.09684
2017-09-12 03:10:00+00:00,340.4564,14.2,12.49,47.84626,-54.09684
2017-09-12 03:20:00+00:00,335.068,14.1,12.57,47.84626,-54.09684
2017-09-12 03:30:00+00:00,335.1079,14.03,12.57,47.84626,-54.09684
2017-09-12 03:40:00+00:00,344.1829,14.06,12.57,47.84626,-54.09684
2017-09-12 03:50:00+00:00,338.0079,14.1,12.57,47.84626,-54.09684
2017-09-12 04:00:00+00:00,324.793,14.1,12.49,47.84626,-54.09684
2017-09-12 04:10:00+00:00,327.5147,14.0,12.49,47.84626,-54.09684
2017-09-12 04:20:00+00:00,334.153,13.9,12.57,47.84626,-54.09684
2017-09-12 04:30:00+00:00,326.1412,13.87,12.57,47.84626,-54.09684
2017-09-12 04:40:00+00:00,319.2447,13.9,12.57,47.84626,-54.09684
2017-09-12 04:50:00+00:00,329.0063,13.9,12.57,47.84626,-54.09684
2017-09-12 05:00:00+00:00,335.4513,13.9,12.49,47.84626,-54.09684
2017-09-12 05:10:00+00:00,321.1297,13.87,12.49,47.84626,-54.09684
2017-09-12 05:20:00+00:00,311.638,13.8,12.57,47.84626,-54.09684
2017-09-12 05:30:00+00:00,311.8914,13.7,12.57,47.84626,-54.09684
2017-09-12 05:40:00+00:00,306.123,13.86,12.57,47.84626,-54.09684
2017-09-12 05:50:00+00:00,297.4697,13.9,12.57,47.84626,-54.09684
2017-09-12 06:00:00+00:00,295.4847,13.89,12.49,47.84626,-54.09684
2017-09-12 06:10:00+00:00,285.4431,13.9,12.49,47.84626,-54.09684
2017-09-12 06:20:00+00:00,274.673,13.92,12.57,47.84626,-54.09684
2017-09-12 06:30:00+00:00,264.9464,13.9,12.57,47.84626,-54.09684
2017-09-12 06:40:00+00:00,256.4997,13.9,12.57,47.84626,-54.09684
2017-09-12 06:50:00+00:00,246.2365,13.94,12.57,47.84626,-54.09684
2017-09-12 07:00:00+00:00,236.3314,13.91,12.49,47.84626,-54.09684
2017-09-12 07:10:00+00:00,225.063,13.9,12.49,47.84626,-54.09684
2017-09-12 07:20:00+00:00,215.9631,13.93,12.57,47.84626,-54.09684
2017-09-12 07:30:00+00:00,210.1898,13.97,12.57,47.84626,-54.09684
2017-09-12 07:40:00+00:00,201.7414,13.98,12.57,47.84626,-54.09684
2017-09-12 07:50:00+00:00,194.4148,13.9,12.57,47.84626,-54.09684
2017-09-12 08:00:00+00:00,190.6547,13.96,12.49,47.84626,-54.09684
2017-09-12 08:10:00+00:00,185.7581,13.83,12.49,47.84626,-54.09684
2017-09-12 08:20:00+00:00,179.7981,13.79,12.57,47.84626,-54.09684
2017-09-12 08:30:00+00:00,182.6564,13.8,12.57,47.84626,-54.09684
2017-09-12 08:40:00+00:00,181.3181,13.8,12.57,47.84626,-54.09684
2017-09-12 08:50:00+00:00,175.4265,13.78,12.57,47.84626,-54.09684
2017-09-12 09:00:00+00:00,179.8582,13.8,12.49,47.84626,-54.09684
2017-09-12 09:10:00+00:00,181.9814,13.8,12.49,47.84626,-54.09684
2017-09-12 09:20:00+00:00,180.3181,13.77,12.57,47.84626,-54.09684
2017-09-12 09:30:00+00:00,184.9765,13.7,12.57,47.84626,-54.09684
2017-09-12 09:40:00+00:00,193.3798,13.78,12.57,47.84626,-54.09684
2017-09-12 09:50:00+00:00,197.3665,13.7,12.57,47.84626,-54.09684
2017-09-12 10:00:00+00:00,197.0665,13.7,12.49,47.84626,-54.09684
2017-09-12 10:10:00+00:00,203.8648,13.8,12.49,47.84626,-54.09684
2017-09-12 10:20:00+00:00,211.9914,13.8,12.57,47.84626,-54.09684
2017-09-12 10:30:00+00:00,211.6864,13.8,12.57,47.84626,-54.09684
2017-09-12 10:40:00+00:00,214.3098,13.8,12.57,47.84626,-54.09684
2017-09-12 10:50:00+00:00,222.2281,13.8,12.57,47.84626,-54.09684
2017-09-12 11:00:00+00:00,228.1664,13.8,12.57,47.84626,-54.09684
2017-09-12 11:10:00+00:00,227.9548,13.8,12.49,47.84626,-54.09684
2017-09-12 11:20:00+00:00,228.3114,13.8,12.57,47.84626,-54.09684
2017-09-12 11:30:00+00:00,233.4581,13.8,12.57,47.84626,-54.09684
2017-09-12 11:40:00+00:00,238.143,13.8,12.57,47.84626,-54.09684
2017-09-12 11:50:00+00:00,240.8181,13.79,12.65,47.84626,-54.09684
2017-09-12 12:00:00+00:00,243.4164,13.8,12.57,47.84626,-54.09684
2017-09-12 12:10:00+00:00,244.8314,13.8,12.57,47.84626,-54.09684
2017-09-12 12:20:00+00:00,247.7164,13.8,12.65,47.84626,-54.09684
2017-09-12 12:30:00+00:00,253.5298,13.79,12.65,47.84626,-54.09684
2017-09-12 12:40:00+00:00,261.0898,13.8,12.65,47.84626,-54.09684
2017-09-12 12:50:00+00:00,266.3781,13.8,12.65,47.84626,-54.09684
2017-09-12 13:00:00+00:00,267.6481,13.8,12.65,47.84626,-54.09684
2017-09-12 13:10:00+00:00,269.5197,13.8,12.65,47.84626,-54.09684
2017-09-12 13:20:00+00:00,277.1164,13.8,12.73,47.84626,-54.09684
2017-09-12 13:30:00+00:00,288.063,13.74,12.73,47.84626,-54.09684
2017-09-12 13:40:00+00:00,296.2764,13.56,12.73,47.84626,-54.09684
2017-09-12 13:50:00+00:00,304.693,13.67,12.97,47.84626,-54.09684
2017-09-12 14:00:00+00:00,311.8097,13.7,12.97,47.84626,-54.09684
2017-09-12 14:10:00+00:00,317.738,13.69,12.89,47.84626,-54.09684
2017-09-12 14:20:00+00:00,324.8547,13.6,12.97,47.84626,-54.09684
2017-09-12 14:30:00+00:00,329.5863,13.6,12.89,47.84626,-54.09684
2017-09-12 14:40:00+00:00,326.1764,13.5,12.89,47.84626,-54.09684
2017-09-12 14:50:00+00:00,327.8129,13.5,12.97,47.84626,-54.09684
2017-09-12 15:00:00+00:00,334.7313,13.59,12.89,47.84626,-54.09684
2017-09-12 15:10:00+00:00,338.3163,13.6,12.81,47.84626,-54.09684
2017-09-12 15:20:00+00:00,337.2113,13.46,12.89,47.84626,-54.09684
2017-09-12 15:30:00+00:00,340.793,13.5,12.89,47.84626,-54.09684
2017-09-12 15:40:00+00:00,347.8195,13.6,12.97,47.84626,-54.09684
2017-09-12 15:50:00+00:00,347.7095,13.6,12.97,47.84626,-54.09684
2017-09-12 16:00:00+00:00,346.8779,13.6,12.89,47.84626,-54.09684
2017-09-12 16:10:00+00:00,349.8013,13.56,12.89,47.84626,-54.09684
2017-09-12 16:20:00+00:00,349.5897,13.6,12.97,47.84626,-54.09684
2017-09-12 16:30:00+00:00,347.7847,13.6,12.89,47.84626,-54.09684
2017-09-12 16:40:00+00:00,348.5896,13.6,12.97,47.84626,-54.09684
2017-09-12 16:50:00+00:00,352.8295,13.6,12.97,47.84626,-54.09684
2017-09-12 17:00:00+00:00,351.1696,13.6,12.97,47.84626,-54.09684
2017-09-12 17:10:00+00:00,348.1129,13.57,12.89,47.84626,-54.09684
2017-09-12 17:20:00+00:00,349.7864,13.6,13.13,47.84626,-54.09684
2017-09-12 17:30:00+00:00,347.6896,13.6,12.97,47.84626,-54.09684
2017-09-12 17:40:00+00:00,340.278,13.54,12.97,47.84626,-54.09684
2017-09-12 17:50:00+00:00,331.5081,13.49,13.05,47.84626,-54.09684
2017-09-12 18:00:00+00:00,328.0496,13.5,12.97,47.84626,-54.09684
2017-09-12 18:10:00+00:00,326.3313,13.5,12.89,47.84626,-54.09684
2017-09-12 18:20:00+00:00,314.488,13.5,12.97,47.84626,-54.09684
2017-09-12 18:30:00+00:00,304.0696,13.5,12.89,47.84626,-54.09684
2017-09-12 18:40:00+00:00,295.7579,13.53,12.97,47.84626,-54.09684
2017-09-12 18:50:00+00:00,293.803,13.43,12.89,47.84626,-54.09684
2017-09-12 19:00:00+00:00,284.2513,13.4,12.89,47.84626,-54.09684
2017-09-12 19:10:00+00:00,268.018,13.4,12.81,47.84626,-54.09684
2017-09-12 19:20:00+00:00,261.5031,13.4,12.97,47.84626,-54.09684
2017-09-12 19:30:00+00:00,259.7398,13.4,12.89,47.84626,-54.09684
2017-09-12 19:40:00+00:00,248.3331,13.42,12.89,47.84626,-54.09684
2017-09-12 19:50:00+00:00,234.2148,13.43,12.89,47.84626,-54.09684
2017-09-12 20:00:00+00:00,230.8781,13.49,12.81,47.84626,-54.09684
2017-09-12 20:10:00+00:00,227.5364,13.5,12.73,47.84626,-54.09684
2017-09-12 20:20:00+00:00,216.4581,13.49,12.81,47.84626,-54.09684
2017-09-12 20:30:00+00:00,207.6797,13.5,12.81,47.84626,-54.09684
2017-09-12 20:40:00+00:00,208.7898,13.5,12.81,47.84626,-54.09684
2017-09-12 20:50:00+00:00,211.7598,13.5,12.81,47.84626,-54.09684
2017-09-12 21:00:00+00:00,205.6731,13.5,12.73,47.84626,-54.09684
2017-09-12 21:10:00+00:00,201.1381,13.5,12.65,47.84626,-54.09684
2017-09-12 21:20:00+00:00,202.2798,13.54,12.73,47.84626,-54.09684
2017-09-12 21:30:00+00:00,202.6647,13.65,12.73,47.84626,-54.09684
2017-09-12 21:40:00+00:00,201.5465,13.8,12.73,47.84626,-54.09684
2017-09-12 21:50:00+00:00,200.6265,13.8,12.73,47.84626,-54.09684
2017-09-12 22:00:00+00:00,208.1598,13.8,12.65,47.84626,-54.09684
2017-09-12 22:10:00+00:00,213.6448,13.7,12.65,47.84626,-54.09684
2017-09-12 22:20:00+00:00,209.9997,13.8,12.65,47.84626,-54.09684
2017-09-12 22:30:00+00:00,211.4481,13.7,12.65,47.84626,-54.09684
2017-09-12 22:40:00+00:00,218.7564,13.79,12.65,47.84626,-54.09684
2017-09-12 22:50:00+00:00,222.1681,13.7,12.65,47.84626,-54.09684
2017-09-12 23:00:00+00:00,222.9164,13.5,12.65,47.84626,-54.09684
2017-09-12 23:10:00+00:00,220.9715,13.52,12.65,47.84626,-54.09684
2017-09-12 23:20:00+00:00,223.8481,13.5,12.65,47.84626,-54.09684
2017-09-12 23:30:00+00:00,227.7514,13.68,12.65,47.84626,-54.09684
2017-09-12 23:40:00+00:00,227.243,13.7,12.65,47.84626,-54.09684
2017-09-12 23:50:00+00:00,226.7964,13.8,12.65,47.84626,-54.09684
